Regional Weather Roundup
Issued by NWS Goodland, KS

Home | Current Version | Previous Version | Graphics & Text | Print | Product List | Glossary On
Versions: 1 2 3 4 5 6 7 8 9 10 11 12 13 14 15 16 17 18 19 20 21 22 23 24 25 26 27 28 29 30 31 32 33 34 35 36 37 38 39 40 41 42 43 44 45 46 47 48 49 50
000
ASUS43 KGLD 271608
RWRGLD

GOODLAND FORECAST AREA HOURLY WEATHER ROUNDUP
NATIONAL WEATHER SERVICE GOODLAND KS
1000 AM MDT THU APR 27 2017

...OFFICIAL OBSERVATIONS...

CITY           SKY/WX    TMP DP  RH WIND       PRES   REMARKS
GOODLAND KS    CLOUDY    51  35  54 S17       29.57F
HILL CITY KS   CLOUDY    48  35  60 SE14G21   29.68F
IMPERIAL NEB   CLOUDY    46  34  62 SE16      29.61S
MCCOOK NEB     CLOUDY    44  33  65 SE13      29.66F
AKRON CO       CLOUDY    50  39  66 NE5       29.55S
BURLINGTON CO  NOT AVBL
LIMON CO       CLOUDY    49  37  63 SE6       29.54F
$$

...UNOFFICIAL OBSERVATIONS...

CITY           SKY/WX    TMP DP  RH WIND       PRES   REMARKS
NORTON KS      CLOUDY    45  30  57 E14       29.68S
SHARON SPRINGS   N/A     58  40  52 SE20G28     N/A
KIT CARSON CO    N/A     50  36  59 MISG        N/A
$$



USA.gov is the U.S. government's official web portal to all federal, state and local government web resources and services.